Hagerstown, MD

2:44 AM EDT on October 23, 2019 (GMT -0400)
Hagerstown Regional-Henson

Weather History for KHGR - August, 2019

Change the Weather History Date:

Friday, August 16, 2019

  Actual Average Record
Temperature  
Mean Temperature 79 °F 74 °F  
Max Temperature 88 °F 83 °F 98 °F (1997)
Min Temperature 69 °F 64 °F 51 °F (2014)
Degree Days  
Heating Degree Days 0 0  
Month to date heating degree days 0 0  
Since 1 June heating degree days 5 18  
Since 1 July heating degree days 0 0  
Cooling Degree Days 14 9  
Month to date cooling degree days 194 149  
Year to date cooling degree days 1061 755  
Since 1 June cooling degree days 879 679  
Growing Degree Days 28 (Base 50)    
Moisture  
Dew Point 68 °F    
Average Humidity 72    
Maximum Humidity 97    
Minimum Humidity 46    
Precipitation  
Precipitation 0.02 in 0.11 in 1.47 in (2005)
Month to date precipitation 1.01 1.60  
Year to date precipitation 26.98 25.09  
Sea Level Pressure  
Sea Level Pressure 30.00 in    
Wind  
Wind Speed 5 mph (South)    
Max Wind Speed 14 mph    
Max Gust Speed 17 mph    
Visibility 8 miles    
Events      
T = Trace of Precipitation, MM = Missing Value Source: NWS Daily Summary

Daily Weather History Graph

Daily Weather History Graph

Search for Another Location

Airport or City:

Astronomy

Aug. 16, 2019 Rise Set
Actual Time 6:23 AM EDT 8:05 PM EDT
Civil Twilight 5:54 AM EDT 8:34 PM EDT
Nautical Twilight 5:20 AM EDT 9:09 PM EDT
Astronomical Twilight 4:42 AM EDT 9:46 PM EDT
Moon 9:04 PM EDT (8/16) 7:13 AM EDT (8/16)
Length of Visible Light 14h 39m
Length of Day
13h 42m
Full, 99% of the Moon is Illuminated
Aug 16
Full
Aug 23
Last Quarter
Aug 30
New
Sep 5
First Quarter
Sep 14
Full

Hourly Weather History & Observations

Time (EDT) Temp. Heat Index Dew Point Humidity Pressure Visibility Wind Dir Wind Speed Gust Speed Precip Events Conditions
12:28 AM 73.0 °F - 66.0 °F 79% 30.00 in 10.0 mi Calm Calm - N/A   Overcast
12:50 AM 71.6 °F - 64.4 °F 78% 30.00 in 10.0 mi WNW 3.5 mph - N/A   Overcast
12:53 AM 71.1 °F - 64.9 °F 81% 30.01 in 10.0 mi WNW 4.6 mph - N/A   Overcast
1:53 AM 69.1 °F - 66.0 °F 90% 30.01 in 10.0 mi WNW 6.9 mph - 0.02 in   Scattered Clouds
2:53 AM 70.0 °F - 66.9 °F 90% 29.99 in 10.0 mi West 3.5 mph - N/A   Mostly Cloudy
3:08 AM 71.1 °F - 66.0 °F 84% 29.98 in 10.0 mi Calm Calm - N/A   Overcast
3:22 AM 72.0 °F - 68.0 °F 87% 29.97 in 8.0 mi SSE 4.6 mph - N/A   Mostly Cloudy
3:30 AM 73.0 °F - 69.1 °F 87% 29.97 in 7.0 mi SSE 5.8 mph - N/A   Scattered Clouds
3:53 AM 73.0 °F - 70.0 °F 90% 29.99 in 6.0 mi SE 6.9 mph - N/A   Clear
4:26 AM 71.1 °F - 68.0 °F 90% 29.98 in 5.0 mi East 4.6 mph - N/A   Mostly Cloudy
4:53 AM 70.0 °F - 68.0 °F 93% 29.99 in 5.0 mi Calm Calm - N/A   Overcast
5:06 AM 70.0 °F - 68.0 °F 93% 29.98 in 4.0 mi ENE 3.5 mph - N/A   Overcast
5:16 AM 71.1 °F - 68.0 °F 90% 29.98 in 5.0 mi Calm Calm - N/A   Overcast
5:37 AM 71.1 °F - 69.1 °F 93% 29.98 in 5.0 mi Calm Calm - N/A   Overcast
5:53 AM 71.1 °F - 69.1 °F 93% 30.00 in 5.0 mi Calm Calm - N/A   Overcast
6:53 AM 72.0 °F - 68.0 °F 87% 30.01 in 4.0 mi Calm Calm - N/A   Overcast
7:53 AM 73.0 °F - 69.1 °F 87% 30.02 in 4.0 mi Calm Calm - N/A   Mostly Cloudy
8:05 AM 73.9 °F - 70.0 °F 87% 30.01 in 5.0 mi South 4.6 mph - N/A   Mostly Cloudy
8:17 AM 73.9 °F - 70.0 °F 87% 30.01 in 6.0 mi Variable 4.6 mph - N/A   Mostly Cloudy
8:30 AM 73.0 °F - 69.1 °F 87% 30.02 in 3.0 mi WNW 5.8 mph - N/A   Overcast
8:53 AM 73.0 °F - 69.1 °F 87% 30.04 in 3.0 mi NW 5.8 mph - N/A   Overcast
9:10 AM 73.0 °F - 69.1 °F 87% 30.02 in 6.0 mi Calm Calm - N/A   Mostly Cloudy
9:30 AM 75.0 °F - 69.1 °F 82% 30.02 in 7.0 mi SW 4.6 mph - N/A   Mostly Cloudy
9:37 AM 73.9 °F - 69.1 °F 85% 30.02 in 7.0 mi Variable 3.5 mph - N/A   Mostly Cloudy
9:47 AM 75.2 °F - 69.8 °F 83% 30.02 in 7.0 mi Calm Calm - N/A   Mostly Cloudy
9:53 AM 75.9 °F - 69.1 °F 79% 30.03 in 7.0 mi SW 4.6 mph - N/A   Scattered Clouds
10:13 AM 77.0 °F - 70.0 °F 79% 30.02 in 9.0 mi SSW 4.6 mph - N/A   Overcast
10:25 AM 77.0 °F - 69.1 °F 76% 30.03 in 10.0 mi SSW 4.6 mph - N/A   Mostly Cloudy
10:53 AM 78.1 °F - 69.1 °F 74% 30.04 in 10.0 mi South 10.4 mph - N/A   Overcast
11:53 AM 80.1 °F 82.7 °F 68.0 °F 67% 30.04 in 10.0 mi South 6.9 mph - N/A   Mostly Cloudy
12:05 PM 81.0 °F 84.1 °F 69.1 °F 67% 30.02 in 10.0 mi South 8.1 mph - N/A   Mostly Cloudy
12:53 PM 82.0 °F 84.9 °F 68.0 °F 62% 30.02 in 10.0 mi SW 5.8 mph - N/A   Mostly Cloudy
1:53 PM 82.9 °F 85.0 °F 66.0 °F 56% 30.02 in 10.0 mi SE 11.5 mph - N/A   Mostly Cloudy
2:53 PM 84.0 °F 87.0 °F 68.0 °F 58% 30.01 in 10.0 mi SE 4.6 mph - N/A   Mostly Cloudy
3:53 PM 86.0 °F 87.6 °F 64.9 °F 49% 29.99 in 10.0 mi South 9.2 mph - N/A   Mostly Cloudy
4:53 PM 87.1 °F 88.3 °F 64.0 °F 46% 29.97 in 10.0 mi South 9.2 mph - N/A   Scattered Clouds
5:53 PM 87.1 °F 88.3 °F 64.0 °F 46% 29.97 in 10.0 mi SSE 9.2 mph - N/A   Clear
6:53 PM 84.9 °F 87.1 °F 66.0 °F 53% 29.96 in 10.0 mi SSE 10.4 mph - N/A   Clear
7:53 PM 82.9 °F 85.4 °F 66.9 °F 58% 29.97 in 10.0 mi SSE 3.5 mph - N/A   Clear
8:53 PM 81.0 °F 83.8 °F 68.0 °F 65% 29.99 in 10.0 mi SE 5.8 mph - N/A   Clear
9:53 PM 79.0 °F - 69.1 °F 72% 30.00 in 10.0 mi SE 4.6 mph - N/A   Clear
10:53 PM 77.0 °F - 69.1 °F 76% 30.00 in 10.0 mi ESE 3.5 mph - N/A   Clear
11:53 PM 75.0 °F - 68.0 °F 79% 30.01 in 10.0 mi Calm Calm - N/A   Clear